AD7CQ Weather Reports


Display with metric or nautical units.
time (UTC)temp
F
wind
direction
speed
MPH
gust
MPH
rain 1hr
in
rain 24hr
in
rain mn
in
humidity
%
barometer
mb
20260505034527 79 359 0.0 1.0 0.00 0.00 0.00 30 1001.4
20260505033027 80 341 0.0 1.0 0.00 0.00 0.00 29 1001.3
20260505031535 81 359 0.0 1.0 0.00 0.00 0.00 28 1001.2
20260505030024 82 359 0.0 1.0 0.00 0.00 0.00 27 1001.1
20260505024524 84 359 0.0 2.0 0.00 0.00 0.00 26 1001.1
20260505023023 85 359 0.0 2.0 0.00 0.00 0.00 23 1001.1
20260505021524 86 359 1.0 2.0 0.00 0.00 0.00 21 1001.1
20260505020021 87 359 1.0 4.0 0.00 0.00 0.00 19 1001.3
20260505014520 88 328 1.0 3.0 0.00 0.00 0.00 19 1001.4
20260505013018 89 293 0.0 5.0 0.00 0.00 0.00 19 1001.5
20260505011525 90 347 1.0 6.0 0.00 0.00 0.00 18 1001.5
20260505010026 89 312 1.0 6.0 0.00 0.00 0.00 19 1001.7
20260505004515 89 231 0.0 4.0 0.00 0.00 0.00 20 1001.7
20260505003014 89 221 1.0 7.0 0.00 0.00 0.00 20 1001.7
20260505001513 89 29 0.0 0.0 0.00 0.00 0.00 20 1001.9
20260505000012 90 29 0.0 0.0 0.00 0.00 0.00 20 1001.9
20260504234507 89 30 0.0 0.0 0.00 0.00 0.00 21 1001.9
20260504233006 88 31 0.0 1.0 0.00 0.00 0.00 22 1002.1
20260504231504 89 20 0.0 3.0 0.00 0.00 0.00 22 1002.2
20260504230003 89 26 1.0 3.0 0.00 0.00 0.00 22 1002.3
20260504224500 90 30 1.0 4.0 0.00 0.00 0.00 21 1002.4
20260504223103 89 29 0.0 4.0 0.00 0.00 0.00 22 1002.6
20260504221606 88 35 0.0 2.0 0.00 0.00 0.00 22 1002.7
20260504220053 87 42 0.0 3.0 0.00 0.00 0.00 24 1002.9
20260504214559 87 23 1.0 5.0 0.00 0.00 0.00 23 1003.1
20260504213100 87 284 1.0 6.0 0.00 0.00 0.00 24 1003.4
20260504211548 87 359 1.0 4.0 0.00 0.00 0.00 24 1003.5
20260504210041 86 248 1.0 3.0 0.00 0.00 0.00 25 1003.8
20260504204538 85 359 1.0 5.0 0.00 0.00 0.00 25 1004.0
20260504203046 85 359 1.0 6.0 0.00 0.00 0.00 27 1004.1
20260504201532 85 274 1.0 4.0 0.00 0.00 0.00 28 1004.4
20260504200030 85 4 1.0 5.0 0.00 0.00 0.00 27 1004.5
20260504194537 84 29 1.0 8.0 0.00 0.00 0.00 28 1004.5
20260504193027 84 8 1.0 4.0 0.00 0.00 0.00 29 1004.6
20260504191534 83 359 0.0 3.0 0.00 0.00 0.00 28 1004.8
20260504190020 83 294 0.0 5.0 0.00 0.00 0.00 28 1004.8
20260504184518 81 272 0.0 2.0 0.00 0.00 0.00 28 1005.0
20260504183012 79 261 1.0 6.0 0.00 0.00 0.00 32 1005.0
20260504181514 79 234 1.0 5.0 0.00 0.00 0.00 34 1005.1
20260504180007 78 261 1.0 5.0 0.00 0.00 0.00 36 1005.2
20260504174501 76 275 1.0 4.0 0.00 0.00 0.00 41 1005.3
20260504173057 75 16 0.0 2.0 0.00 0.00 0.00 42 1005.3
20260504171558 74 20 0.0 0.0 0.00 0.00 0.00 44 1005.3
20260504081512 62 18 0.0 0.0 0.00 0.00 0.00 58 1004.4
20260504044549 73 19 0.0 0.0 0.00 0.00 0.00 35 1004.4
20260504043049 74 19 0.0 0.0 0.00 0.00 0.00 34 1004.4
20260504041549 74 18 0.0 2.0 0.00 0.00 0.00 33 1004.4
20260504040110 75 18 0.0 0.0 0.00 0.00 0.00 33 1004.3